{"data":{"norad_id":67940,"epoch":"2026-09-19T04:16:52.524480Z","epoch_age_seconds":177359,"freshness":"STALE","line1":"1 67940U 26037J   26262.17838570  .00015624  00000+0  57589-3 0  9995","line2":"2 67940  43.0002 177.8781 0001517 266.0677  94.0001 15.27591077 32939","mean_motion":15.27591077,"eccentricity":0.0001517,"inclination_deg":43.0002,"raan_deg":177.8781,"arg_perigee_deg":266.0677,"mean_anomaly_deg":94.0001,"bstar":0.00057589,"rev_number":3293,"period_min":94.266065158484,"perigee_km":481.97509081802,"apogee_km":484.05676461629,"semimajor_km":6861.1529277172,"source":"CELESTRAK","updated_at":"2026-09-20T09:00:43.708318Z"}}